EHI
0 0 0 0 0 0 0 0 0 0 0 0 0 0 0 0 0 0 0 2 6 6 3 2 3 4 6 7 7 7 6 5 3 2 1 3 4 6 9 15 22 27 27
0 0 0 0 0 0 0 0 0 0 0 0 0 0 0 0 0 0 0 1 3 4 3 2 3 4 5 5 5 4 4 3 2 2 1 2 3 4 8 14 20 24 26
0 0 0 0 0 0 0 0 0 0 0 0 0 0 0 0 0 0 0 0 0 1 2 2 2 3 3 3 2 1 1 1 1 1 1 0 1 2 5 11 15 18 20
0 0 0 0 0 0 0 0 0 0 0 0 0 0 0 0 0 0 0 0 0 0 0 1 1 1 1 1 0 0 0 0 0 0 0 0 0 1 3 5 7 9 10
0 0 0 0 0 0 0 0 0 0 0 0 0 0 0 0 0 0 0 0 0 0 0 0 0 0 0 0 0 0 0 0 0 0 0 0 0 0 1 1 1 2 2
0 0 0 0 0 0 0 0 0 0 0 0 0 0 0 0 0 0 0 0 0 0 0 0 0 0 0 0 0 0 0 0 0 0 0 0 0 0 0 0 0 0 0
0 0 0 0 0 0 0 0 0 0 0 0 0 0 0 0 0 0 0 0 0 0 0 0 0 0 0 0 0 0 0 0 0 0 0 0 0 0 0 0 0 0 0
0 0 0 0 0 0 0 0 0 0 0 0 0 0 0 0 0 0 0 0 0 0 0 0 0 0 0 0 0 0 0 0 0 0 0 0 0 0 0 0 0 0 0
0 0 0 0 0 0 0 0 0 0 0 0 0 0 0 0 0 0 0 0 0 0 0 0 0 0 0 0 0 0 0 0 0 0 0 0 0 0 0 0 0 0 0
0 0 0 0 0 0 0 0 0 0 0 0 0 0 0 0 0 0 0 0 0 0 0 0 0 0 0 0 0 0 0 0 0 0 0 0 0 0 0 0 0 0 0
0 0 0 0 0 0 0 0 0 0 0 0 0 0 0 0 0 0 0 0 0 0 0 0 0 0 0 0 0 0 0 0 0 0 0 0 0 0 0 0 0 0 0
0 0 0 0 0 0 0 0 0 0 0 0 0 0 0 0 0 0 0 0 0 0 0 0 0 0 0 0 0 0 0 0 0 0 0 0 0 0 0 0 0 0 0
0 0 0 0 0 0 0 0 0 0 0 0 0 0 0 0 0 0 0 0 0 0 0 0 0 0 0 0 0 0 0 0 0 0 0 0 0 0 0 0 0 0 0
0 0 0 0 0 0 0 0 0 0 0 0 0 0 0 0 0 0 0 0 0 0 0 0 0 0 0 0 0 0 0 0 0 0 0 0 0 0 0 0 0 0 0
0 0 0 0 0 0 0 0 0 0 0 0 0 0 0 0 0 0 0 0 0 0 0 0 0 0 0 0 0 0 0 0 0 0 0 0 0 0 0 0 0 0 0
0 0 0 0 0 0 0 0 0 0 0 0 0 0 0 0 0 0 0 0 0 0 0 0 0 0 0 0 0 0 0 0 0 0 0 0 0 0 0 0 0 0 0
0 0 0 0 0 0 0 0 0 0 0 0 0 0 0 0 0 0 0 0 0 0 0 0 0 0 0 0 0 0 0 0 0 0 0 0 0 0 0 0 0 0 0
0 0 0 0 0 0 0 0 0 0 0 0 0 0 0 0 0 0 0 0 0 0 0 0 0 0 0 0 0 0 0 0 0 0 0 0 0 0 0 0 0 0 0
0 0 0 0 0 0 0 0 0 0 0 0 0 0 0 0 0 0 0 0 0 0 0 0 0 0 0 0 0 0 0 0 0 0 0 0 0 0 0 0 0 0 0
0 0 0 0 0 0 0 0 0 0 0 0 0 0 0 0 0 0 0 0 0 0 0 0 0 0 0 0 0 0 0 0 0 0 0 0 0 0 0 0 0 0 0
0 0 0 0 0 0 0 0 0 0 0 0 0 0 0 0 0 0 0 0 0 0 0 0 0 0 0 0 0 0 0 0 0 0 0 0 0 0 0 0 0 0 0
0 0 0 0 0 0 0 0 0 0 0 0 0 0 0 0 0 0 0 0 0 0 0 0 0 0 0 0 0 0 0 0 0 0 0 0 0 0 0 0 0 0 0
0 0 0 0 0 0 0 0 0 0 0 0 0 0 0 0 0 0 0 0 0 0 0 0 0 0 0 0 0 0 0 0 0 0 0 0 0 0 0 0 0 0 0
0 0 0 0 0 0 0 0 0 0 0 0 0 0 0 0 0 0 0 0 0 0 0 0 0 0 0 0 0 0 0 0 0 0 0 0 0 0 0 0 0 0 0
0 0 0 0 0 0 0 0 0 0 0 0 0 0 0 0 0 0 0 0 0 0 0 0 0 0 0 0 0 0 0 0 0 0 0 0 0 0 0 0 0 0 0
0 0 0 0 0 0 0 0 0 0 0 0 0 0 0 0 0 0 0 0 0 0 0 0 0 0 0 0 0 0 0 0 0 0 0 0 0 0 0 0 0 0 0
Wind_Speed
3 2 2 1 1 1 1 2 2 3 4 5 6 6 6 6 5 4 3 7 6 5 6 8 8 8 7 6 6 5 5 5 5 5 5 4 4 3 3 3 3 4 5
3 3 2 2 1 2 2 3 4 4 4 5 7 7 6 6 5 5 5 6 9 9 8 7 7 8 8 7 5 4 3 3 3 4 4 4 4 3 3 3 3 4 4
4 3 3 2 2 3 4 5 6 5 5 5 6 6 5 6 6 6 6 5 5 9 10 9 8 6 7 7 6 6 5 4 4 4 4 4 3 3 3 3 3 2 3
5 4 3 3 4 4 4 5 4 5 4 4 4 4 4 4 5 6 6 7 6 6 9 13 12 10 7 5 4 3 4 4 5 5 5 5 5 5 4 4 4 4 4
5 5 4 4 5 5 4 4 4 3 3 3 3 4 4 4 5 6 8 8 8 8 7 11 15 15 13 11 9 7 6 5 5 5 6 7 8 7 6 6 5 5 5
7 7 6 6 6 6 5 4 5 4 3 2 3 4 4 4 5 6 6 6 7 8 8 8 8 10 15 14 13 11 10 9 8 8 8 9 9 8 7 7 7 7 8
7 8 7 6 6 5 4 4 4 5 4 2 2 3 3 4 4 4 4 5 6 6 6 7 6 5 5 12 12 12 11 11 11 11 11 11 11 10 10 10 10 11 10
7 8 8 6 6 5 5 3 3 3 3 3 2 2 2 1 2 2 2 3 4 3 4 4 4 4 3 3 7 11 11 11 12 12 13 13 13 12 12 13 14 14 13
7 8 8 7 6 5 5 4 3 4 3 3 3 3 2 1 2 1 1 1 2 2 2 3 3 3 3 3 3 7 10 11 12 13 14 14 14 15 15 16 17 17 16
7 8 7 7 6 5 5 4 3 3 4 2 2 3 2 2 1 2 2 2 3 3 3 3 4 4 4 4 5 8 11 12 13 14 15 16 16 16 17 17 18 19 19
6 7 6 6 6 5 5 5 4 4 3 3 2 1 2 1 1 2 4 4 4 4 4 5 5 5 6 5 5 8 13 14 15 16 17 18 18 18 19 19 20 20 21
4 6 6 5 5 4 4 4 4 5 3 3 2 1 2 2 2 3 4 6 7 6 5 5 5 6 6 6 7 13 15 17 17 18 19 19 20 20 20 21 21 21 21
3 4 4 4 4 4 4 4 3 3 2 2 1 1 2 2 2 3 3 5 6 5 5 4 5 5 6 5 6 14 15 17 17 18 19 20 21 21 22 22 22 22 22
4 4 4 4 4 4 4 4 4 3 3 2 1 0 1 2 2 3 3 4 7 7 5 6 4 5 5 5 8 15 11 16 17 18 20 21 22 23 24 24 23 23 22
5 5 5 6 6 6 6 6 5 5 4 4 3 3 2 2 2 2 3 3 5 10 10 7 4 4 5 6 10 10 9 14 19 20 21 22 23 24 25 25 25 25 24
6 7 7 7 7 7 7 7 6 5 5 4 3 4 4 3 4 3 3 4 4 7 9 5 6 8 10 10 14 12 11 19 20 20 20 21 21 22 23 24 26 26 25
7 8 8 8 8 7 6 6 5 5 5 5 5 5 5 5 4 4 4 4 5 5 10 10 7 8 10 12 12 12 12 11 11 18 20 20 21 21 20 20 21 23 24
7 7 7 7 7 6 5 6 5 5 5 5 6 6 7 6 7 6 5 6 6 7 8 13 11 9 11 12 13 13 12 11 10 16 20 21 21 22 20 19 18 17 17
6 6 6 6 6 5 4 4 3 4 4 5 6 7 8 7 8 7 8 7 7 8 8 11 13 10 9 10 11 11 12 10 11 13 17 19 20 21 20 18 17 16 14
6 5 5 5 4 3 3 3 3 4 5 6 7 7 8 8 9 9 8 9 9 9 10 10 11 10 9 9 8 9 9 8 9 10 13 15 18 20 21 20 18 18 15
5 4 4 4 3 2 2 3 3 5 6 8 8 8 8 11 12 10 9 9 10 9 9 9 9 9 9 8 7 7 9 9 10 9 10 9 9 9 11 14 17 18 15
5 4 4 4 3 3 5 8 7 5 7 8 9 9 9 10 12 15 17 17 16 13 11 9 8 9 11 10 8 7 8 8 7 4 5 8 7 9 9 8 13 16 16
4 4 4 4 3 4 7 8 11 6 7 7 8 8 8 9 12 9 13 17 16 18 17 12 11 10 11 9 9 9 8 9 8 6 6 8 7 9 8 8 14 15 15
3 3 3 3 3 4 8 8 11 7 7 8 8 9 9 10 10 12 12 12 12 12 12 9 9 10 9 9 8 8 9 8 7 7 6 6 6 6 6 5 9 12 13
3 3 2 3 3 5 9 10 10 6 7 9 9 9 10 10 12 16 13 12 12 10 11 12 12 12 13 12 9 5 5 6 6 5 3 4 3 4 5 4 4 7 8
2 3 3 3 4 5 9 10 10 5 7 8 9 9 12 11 15 17 11 10 10 10 11 11 10 9 7 7 7 5 5 5 5 4 3 3 3 3 4 3 2 2 2
Wind_Direction
185 181 181 164 140 120 105 74 58 62 62 59 55 53 43 37 36 32 17 13 10 345 301 286 276 266 259 252 243 236 228 222 214 207 202 200 201 203 206 213 226 234 243
179 176 173 154 135 126 113 101 92 87 76 71 61 52 45 39 37 36 31 21 18 13 360 334 310 291 279 270 253 237 220 205 197 188 186 185 189 193 203 212 224 233 239
177 167 155 136 120 114 108 98 88 79 73 66 60 51 44 36 37 37 34 28 20 21 18 13 357 333 299 280 263 253 246 236 229 225 219 212 207 205 210 215 222 231 239
161 144 133 119 109 101 101 99 89 79 65 66 67 48 38 33 42 46 46 42 37 32 29 32 31 26 16 3 341 304 283 270 266 266 261 254 246 234 230 236 243 246 250
135 123 114 107 102 92 85 91 71 82 70 65 84 66 44 47 47 57 56 50 48 46 41 37 39 38 36 32 25 15 357 332 312 299 289 281 272 258 246 244 248 253 256
115 111 104 97 93 91 82 81 83 65 64 55 75 70 55 58 58 56 58 56 53 53 49 45 38 33 35 32 25 17 5 348 336 323 305 293 289 281 268 255 252 257 261
104 105 105 96 90 90 91 98 93 74 46 12 89 74 54 57 65 53 53 61 57 50 47 44 39 34 23 24 18 11 5 353 339 325 313 303 296 283 269 259 254 252 251
104 106 107 103 99 99 91 88 109 105 54 21 87 93 51 20 28 43 36 60 53 37 32 27 25 22 12 6 355 356 352 345 334 323 315 310 304 292 274 263 256 251 246
103 108 111 112 112 111 109 102 110 123 120 48 41 115 132 224 307 324 331 14 10 9 349 327 330 329 322 320 314 326 327 326 321 314 309 306 301 294 283 273 263 257 251
106 106 111 114 115 114 115 111 98 105 118 111 57 46 80 136 186 315 308 301 309 301 292 291 296 287 280 276 275 293 301 304 302 300 296 294 293 290 284 278 271 263 258
103 111 114 117 115 111 113 108 103 97 96 116 120 108 91 69 121 209 280 295 291 265 262 266 271 274 273 266 262 271 286 296 295 292 288 286 284 283 280 277 273 269 264
102 105 112 109 110 111 113 115 115 114 114 119 130 146 164 185 205 210 250 281 293 289 274 259 259 265 270 267 268 287 294 297 295 291 287 284 282 280 278 275 274 272 269
113 109 110 110 110 113 115 113 106 104 108 113 151 193 212 226 216 214 246 272 278 285 280 265 251 257 268 266 272 289 294 296 294 293 290 288 284 280 277 276 274 273 272
113 110 107 101 92 88 87 82 74 66 67 63 51 320 251 260 233 228 245 279 292 285 270 271 275 265 272 275 277 290 291 291 293 292 290 287 284 281 277 275 273 272 271
110 98 89 79 72 73 76 77 69 60 58 47 36 25 357 330 320 283 261 254 280 295 295 283 276 278 284 286 282 285 279 284 290 290 288 285 282 279 276 273 271 269 268
87 89 85 83 79 76 78 79 72 59 53 34 15 10 350 327 317 309 297 281 264 278 290 286 283 285 287 289 290 290 285 288 289 288 286 284 282 278 275 271 268 266 263
88 92 95 93 89 84 80 78 70 52 41 20 5 350 331 319 309 307 301 292 283 277 288 295 285 281 277 279 283 283 281 280 278 280 282 283 283 282 279 278 274 267 262
89 98 100 96 92 86 78 74 60 45 27 5 347 335 324 320 310 301 294 289 285 276 280 294 298 290 280 279 278 277 279 277 276 279 280 281 280 278 278 278 278 276 267
87 87 91 92 91 87 77 67 53 29 5 343 330 322 315 313 306 301 297 290 285 285 277 285 293 290 284 279 278 276 276 276 278 279 279 278 276 276 276 275 274 272 266
84 82 82 83 84 77 62 42 22 2 345 332 324 315 307 301 293 295 294 289 289 288 284 283 287 290 288 283 277 281 286 282 282 283 280 275 273 273 273 271 268 265 258
83 84 79 67 52 48 36 23 357 347 337 329 324 317 309 305 307 309 309 305 300 294 291 288 290 294 295 295 289 285 288 292 286 274 273 274 273 270 270 268 266 263 258
67 64 57 50 37 32 26 20 5 346 333 325 320 318 313 307 313 316 315 312 309 305 302 295 293 295 299 299 295 291 290 290 287 267 266 280 276 272 268 259 257 255 251
58 54 44 43 37 20 21 7 355 347 327 317 312 312 313 313 317 311 312 313 309 304 301 299 296 296 297 299 296 291 285 284 284 283 283 283 279 277 272 265 261 254 249
51 43 37 35 26 2 359 351 347 343 325 317 311 308 308 311 314 320 318 311 306 302 300 298 289 289 290 292 289 287 289 289 282 279 274 282 284 280 281 269 262 257 250
44 33 32 26 9 342 342 343 348 333 325 322 317 316 316 315 314 319 320 312 308 306 307 302 295 290 290 292 296 300 306 310 310 304 291 280 291 292 285 279 274 267 257
43 33 25 9 353 333 330 338 346 335 329 326 321 319 318 315 315 319 317 309 309 314 315 315 312 308 302 300 306 305 306 308 310 300 305 302 289 298 296 284 282 284 267